This is the latest recevied weather packets stored in our database for station/object NI4CE-11. If no packets are shown the sender has not sent any weather packets the latest 10 day(s).
| Time | Temp. | Humidity | Pressure | Rain* | Wind** | Luminosity | Snow |
|---|---|---|---|---|---|---|---|
| 1777976389 | 20° C | 100% | 1015 hPa | 0 mm | - | - | - |
| 1777976089 | 17.78° C | 100% | 1014.9 hPa | 0 mm | - | - | - |
| 1777975824 | 18.33° C | 100% | 1014.8 hPa | 0 mm | - | - | - |
| 1777975789 | 17.78° C | 100% | 1015 hPa | 0 mm | - | - | - |
| 1777975489 | 17.78° C | 100% | 1014.9 hPa | 0 mm | - | - | - |
| 1777975222 | 18.33° C | 100% | 1014.8 hPa | 0 mm | - | - | - |
| 1777975189 | 17.78° C | 100% | 1014.9 hPa | 0 mm | - | - | - |
| 1777974889 | 18.33° C | 100% | 1014.8 hPa | 0 mm | - | - | - |
| 1777974848 | 18.89° C | 100% | 1014.7 hPa | 0 mm | - | - | - |
| 1777974589 | 18.89° C | 100% | 1014.8 hPa | 0 mm | - | - | - |
| 1777974289 | 18.33° C | 100% | 1014.8 hPa | 0 mm | - | - | - |
| 1777974272 | 18.89° C | 100% | 1014.8 hPa | 0 mm | - | - | - |
| 1777973989 | 18.89° C | 100% | 1014.8 hPa | 0 mm | - | - | - |
| 1777973689 | 18.89° C | 100% | 1014.7 hPa | 0 mm | - | - | - |
| 1777973389 | 18.33° C | 100% | 1014.6 hPa | 0 mm | - | - | - |
| 1777973089 | 19.44° C | 100% | 1014.6 hPa | 0 mm | - | - | - |
| 1777972789 | 18.33° C | 100% | 1014.6 hPa | 0 mm | - | - | - |
| 1777972489 | 18.33° C | 100% | 1014.7 hPa | 0 mm | - | - | - |
| 1777972219 | 18.33° C | 100% | 1014.6 hPa | 0 mm | - | - | - |
| 1777972189 | 19.44° C | 100% | 1014.6 hPa | 0 mm | - | - | - |
| 1777971929 | 18.89° C | 100% | 1014.6 hPa | 0 mm | - | - | - |
| 1777971890 | 18.33° C | 100% | 1014.6 hPa | 0 mm | - | - | - |
| 1777971697 | 18.89° C | 100% | 1014.6 hPa | 0 mm | - | - | - |
| 1777971589 | 18.89° C | 100% | 1014.6 hPa | 0 mm | - | - | - |
| 1777971571 | 19.44° C | 100% | 1014.6 hPa | 0 mm | - | - | - |
* Rain latest hour (hover to see other rain measurements)
** Current wind speed in m/s (hover to see current wind gust speed)